Location: Northam
(31.6525°S, 116.6655°E)
Time: 22:13:34
(UTC+08:00)

Envisat - Pass Details

Date: 17 May 2021
Orbit: 764 x 766 km, 98.1° (Epoch: 13 June)

Event Time Altitude Azimuth Distance (km) Brightness Sun altitude
Rises 19:03:54 0° 194° (SSW) 3,263 6.3 -21.2°
Reaches altitude 10° 19:07:49 10° 224° (SW) 2,326 5.9 -22.1°
Maximum altitude 19:09:35 12° 245° (WSW) 2,197 6.1 -22.4°
Drops below altitude 10° 19:11:22 10° 265° (W) 2,317 6.5 -22.8°
Sets 19:15:16 0° 296° (WNW) 3,232 7.5 -23.6°
